Regional Weather Roundup
Issued by NWS

Home | Current Version | Previous Version | Graphics & Text | Print | Product List | Glossary On
Versions: 1 2 3 4 5 6 7 8 9 10 11 12 13 14 15 16 17 18 19 20 21 22 23 24 25 26 27 28 29 30 31 32 33 34 35 36 37 38 39 40 41 42 43 44 45 46 47 48 49 50
000
ASUS45 KCYS 290810
RWRWY

WYOMING REGIONAL WEATHER ROUNDUP
NATIONAL WEATHER SERVICE CHEYENNE WY
200 AM MDT WED JUL 29 2015

NOTE:  "FAIR" INDICATES FEW OR NO CLOUDS BELOW 12,000 FEET
WITH NO SIGNIFICANT WEATHER AND/OR OBSTRUCTIONS TO VISIBILITY.

WYZ001-290900-
YELLOWSTONE NATIONAL PARK

CITY           SKY/WX    TMP DP  RH WIND       PRES   REMARKS
LK YELLOWSTONE   N/A     30  27  88 NW3       30.47S
W YELLOWSTONE  NOT AVBL

$$
WYZ002>013-054>058-071-098>099-290900-
NORTHERN WYOMING

CITY           SKY/WX    TMP DP  RH WIND       PRES   REMARKS
JACKSON        FAIR      39  36  87 CALM      30.42R
CODY           FAIR      55  34  44 SW7       30.32R
GREYBULL       FAIR      54  36  50 SE3       30.26R
WORLAND        FAIR      51  32  48 S7        30.27R
SHERIDAN       FAIR      55  34  45 W12       30.25R
BUFFALO        FAIR      50  34  54 SW7       30.30R
GILLETTE       FAIR      52  36  54 SW9       30.25S
HULETT         FAIR      50  36  57 S9        30.24R
NEWCASTLE      FAIR      50  36  57 N7        30.28S

$$
WYZ014>020-022>026-101>103-290900-
CENTRAL WYOMING

CITY           SKY/WX    TMP DP  RH WIND       PRES   REMARKS
BIG PINEY      FAIR      40  27  59 NW7       30.42S
PINEDALE       FAIR      37  32  81 NW7       30.43S WCI  32
DUBOIS         FAIR      37  28  70 NW13      30.42S WCI  29
LANDER         FAIR      54  29  38 SW10      30.34R
RIVERTON       FAIR      51  28  41 NW8       30.34S
CASPER         FAIR      48  29  47 E5        30.34R
DOUGLAS        FAIR      48  31  51 CALM      30.33S

$$
WYZ021-027>030-104>119-290900-
SOUTHERN WYOMING

CITY           SKY/WX    TMP DP  RH WIND       PRES   REMARKS
EVANSTON       FAIR      51  27  39 N5        30.41S
KEMMERER       FAIR      41  30  65 N8        30.43R
FORT BRIDGER   SUNNY     54  25  32 W5        30.43S
ROCK SPRINGS   FAIR      52  20  28 SE3       30.38R
DIXON          FAIR      46  22  39 NE3       30.36F
RAWLINS        FAIR      45  18  34 N12       30.36S
SARATOGA       FAIR      41  27  56 CALM      30.38S
LARAMIE        FAIR      51  25  36 E9        30.38F
CHEYENNE       FAIR      59  28  30 VRB3      30.34S
TORRINGTON     FAIR      53  39  59 W5        30.26R
PINE BLUFFS    FAIR      48  37  66 CALM      30.30S

$$


USA.gov is the U.S. government's official web portal to all federal, state and local government web resources and services.